{"data":{"norad_id":53209,"intl_designator":"2022-084W","name":"STARLINK-4423","alt_names":[],"object_type":"PAYLOAD","status":"ACTIVE","operator":null,"country":"US","launch_date":"2022-07-22","launch_site_code":"AFWTR","launch_vehicle":null,"mission":null,"orbit_class":"UNKNOWN","rcs_meters":null,"size_class":null,"mass_kg":null,"dimensions":null,"purposes":["comms"],"wikipedia_slug":null,"has_3d_model":false,"image_url":null,"decayed_at":null,"tle_current":{"epoch":"2026-05-25T02:58:57.489600Z","epoch_age_seconds":67498,"freshness":"FRESH","line1":"1 53209U 22084W   26145.12427650 -.00008530  00000+0 -58699-3 0  9997","line2":"2 53209  97.4487 205.1492 0000291  85.2031 274.9230 15.05702557210810","mean_motion":15.05702557,"eccentricity":2.91e-5,"inclination_deg":97.4487,"raan_deg":205.1492,"arg_perigee_deg":85.2031,"mean_anomaly_deg":274.923,"bstar":-0.00058699,"rev_number":21081,"period_min":95.636418581177,"perigee_km":549.14835547143,"apogee_km":549.55153521165,"semimajor_km":6927.4869453415,"source":"CELESTRAK","updated_at":"2026-05-25T13:38:17.353701Z"}}}